Location: R�serve Fauniques des Laurentides
(47.3100°N, 71.1900°W)
Time: 16:09:35
(UTC-04:00)

Amateur Radio Satellites - All Passes

Search period start: 25 July 2016 15:39
Search period end: 26 July 2016 15:39
Location: R�serve Fauniques des Laurentides, 47.3100°N, 71.1900°W

Satellite Date Start Highest point End Downlink Frequencies (MHz)
Time Altitude Azimuth
ITAMSAT 1 25 Jul 15:42:00 15:46:34 30° 265° (W) 15:51:09 435.822/435.867
SO-50 25 Jul 15:49:19 15:53:16 25° 36° (NE) 15:57:06 436.795
TISAT 1 25 Jul 15:50:48 15:52:27 12° 302° (WNW) 15:54:06 437.305
KKS-1 25 Jul 15:50:53 15:54:23 22° 93° (E) 15:57:52 437.445
NOAA 15 25 Jul 15:57:04 15:58:20 11° 51° (NE) 15:59:37 137.62
CUSAT 1 25 Jul 15:58:51 16:00:30 14° 266° (W) 16:02:17 437.405
AO-7 25 Jul 16:00:44 16:08:55 57° 257° (WSW) 16:17:11 29.400- 29.500
DANDE 25 Jul 16:02:03 16:04:32 40° 262° (W) 16:07:05 436.750
MOZHAYETS 4 25 Jul 16:10:15 16:14:30 36° 97° (E) 16:18:43
HORYU 2 25 Jul 16:15:33 16:19:50 45° 69° (ENE) 16:24:08 437.375
AO-85 25 Jul 16:16:10 16:20:50 31° 321° (NW) 16:25:17 145.980
GONETS M04 25 Jul 16:27:03 16:35:42 70° 282° (WNW) 16:44:27
SWISSCUBE 25 Jul 16:28:10 16:32:00 25° 297° (WNW) 16:35:51 437.505
Cosmos 2499 25 Jul 16:32:28 16:41:24 82° 280° (W) 16:50:06 435.465 / 435.565
STARS 25 Jul 16:34:44 16:38:41 30° 96° (E) 16:42:36 437.465
Cubesat XI-IV 25 Jul 16:42:47 16:46:36 20° 58° (ENE) 16:50:25 437.490
BEESAT 25 Jul 16:50:14 16:53:28 18° 301° (WNW) 16:56:42 436.000
CUTE-I 25 Jul 17:06:05 17:10:41 30° 63° (ENE) 17:15:17 437.470
GOMX 1 25 Jul 17:10:28 17:13:23 18° 61° (ENE) 17:16:23 467.674
ITUPSAT 1 25 Jul 17:12:59 17:15:02 13° 305° (NW) 17:17:04 437.325
DOVE 4 25 Jul 17:15:23 17:16:29 11° 55° (NE) 17:17:37 437.250
LilacSat-2 25 Jul 17:20:23 17:23:39 27° 67° (ENE) 17:26:58 437.200
CUBESAT XI-V 25 Jul 17:24:24 17:28:23 28° 94° (E) 17:32:21 437.345
NOAA 18 25 Jul 17:25:06 17:30:19 44° 66° (ENE) 17:35:34 137.9125
KKS-1 25 Jul 17:26:52 17:31:09 44° 291° (WNW) 17:35:25 437.445
SO-50 25 Jul 17:29:31 17:34:09 64° 236° (WSW) 17:38:37 436.795
NOAA 15 25 Jul 17:31:56 17:37:05 61° 70° (ENE) 17:42:16 137.62
BRITE-PL 25 Jul 17:35:05 17:39:11 66° 75° (ENE) 17:43:21 437.365/2234.400
HO-68 25 Jul 17:45:04 17:49:42 19° 48° (NE) 17:54:21 435.675
RS-15 25 Jul 17:45:32 17:56:30 40° 253° (WSW) 18:07:22 29.354- 29.394
MOZHAYETS 4 25 Jul 17:47:39 17:51:33 28° 295° (WNW) 17:55:24
HORYU 2 25 Jul 17:53:10 17:56:36 21° 267° (W) 18:00:04 437.375
AO-85 25 Jul 18:00:55 18:02:50 12° 343° (NNW) 18:04:42 145.980
AO-7 25 Jul 18:01:30 18:03:35 11° 278° (W) 18:05:40 29.400- 29.500
STARS 25 Jul 18:11:05 18:15:01 31° 294° (WNW) 18:18:56 437.465
Cubesat XI-IV 25 Jul 18:20:45 18:26:07 72° 257° (WSW) 18:31:32 437.490
GONETS M04 25 Jul 18:28:59 18:34:27 18° 307° (NW) 18:39:57
Cosmos 2499 25 Jul 18:29:24 18:35:54 22° 302° (WNW) 18:42:17 435.465 / 435.565
YUBILEINY 25 Jul 18:34:40 18:38:36 13° 47° (NE) 18:42:31 435.215
PCSat 25 Jul 18:35:13 18:37:36 13° 103° (ESE) 18:39:59 145.827
CUTE-I 25 Jul 18:45:24 18:50:33 45° 261° (W) 18:55:43 437.470
GOMX 1 25 Jul 18:47:05 18:51:07 49° 261° (W) 18:55:20 467.674
DOVE 4 25 Jul 18:49:04 18:53:20 80° 76° (ENE) 18:57:52 437.250
SEEDS 25 Jul 18:49:29 18:52:05 16° 62° (ENE) 18:54:40 437.485
LilacSat-2 25 Jul 18:54:33 18:57:55 27° 265° (W) 19:01:17 437.200
CUBEBUG 2 25 Jul 18:59:42 19:01:50 13° 57° (ENE) 19:03:59 437.445
CUBESAT XI-V 25 Jul 19:01:37 19:05:49 36° 292° (WNW) 19:10:01 437.345
COMPASS 1 25 Jul 19:04:45 19:07:21 16° 62° (ENE) 19:09:57 437.405
NOAA 18 25 Jul 19:06:15 19:11:06 31° 265° (W) 19:16:01 137.9125
PHONESAT 2.4 25 Jul 19:12:02 19:14:20 19° 170° (S) 19:16:40 2401.200-2431.200
NOAA 15 25 Jul 19:13:26 19:17:17 21° 269° (W) 19:21:10 137.62
CINEMA 3 25 Jul 19:14:05 19:18:24 45° 70° (ENE) 19:22:56 145.822/145.860
BRITE-PL 25 Jul 19:16:34 19:18:14 12° 272° (W) 19:19:55 437.365/2234.400
BEESAT 3 25 Jul 19:24:57 19:28:50 68° 124° (SE) 19:32:46 437.485
CANX-2 25 Jul 19:26:47 19:30:59 55° 72° (ENE) 19:35:10 2200.000
BEESAT 2 25 Jul 19:27:34 19:31:16 39° 120° (ESE) 19:35:01 435.950
HO-68 25 Jul 19:29:07 19:36:17 73° 69° (ENE) 19:43:28 435.675
Oscar 11 25 Jul 19:32:11 19:33:47 12° 58° (ENE) 19:35:25 145.826/435.025
AAUSAT CUBESAT 2 25 Jul 19:33:58 19:37:22 25° 66° (ENE) 19:40:45 437.432
CUTE 1.7 + AOD 2 25 Jul 19:40:31 19:44:46 67° 74° (ENE) 19:49:02 437.475
AO-85 25 Jul 19:45:22 19:45:32 10° 9° (N) 19:45:42 145.980
STRAND 1 25 Jul 19:45:47 19:50:43 45° 99° (E) 19:55:35 437.568
O/OREOS (USA 219) 25 Jul 19:54:04 19:55:23 11° 97° (E) 19:56:42 437.305
Cosmos 2491 25 Jul 20:03:44 20:08:24 16° 72° (ENE) 20:13:04 435.465 / 435.565
Cubesat XI-IV 25 Jul 20:06:14 20:07:08 10° 275° (W) 20:08:03 437.490
AUBIESAT-1 25 Jul 20:08:40 20:10:44 14° 52° (NE) 20:12:52 437.475
DELFI C3 25 Jul 20:13:46 20:15:28 12° 60° (ENE) 20:17:09 145.870
PCSat 25 Jul 20:14:41 20:20:06 80° 121° (ESE) 20:25:34 145.827
UWE-3 25 Jul 20:15:08 20:19:26 42° 69° (ENE) 20:23:51 435.000/436.395/437.385
ZACube-1 25 Jul 20:20:07 20:24:10 33° 67° (ENE) 20:28:17 437.345
FUNcube-1 25 Jul 20:20:17 20:24:16 31° 67° (ENE) 20:28:18 145.935
SEEDS 25 Jul 20:23:09 20:27:21 61° 259° (W) 20:31:33 437.485
YUBILEINY 25 Jul 20:29:19 20:37:58 53° 73° (ENE) 20:46:32 435.215
DOVE 4 25 Jul 20:30:24 20:31:46 11° 275° (W) 20:33:09 437.250
CUBEBUG 2 25 Jul 20:33:05 20:37:41 87° 74° (ENE) 20:42:26 437.445
COMPASS 1 25 Jul 20:38:21 20:42:29 58° 260° (W) 20:46:38 437.405
PHONESAT 2.4 25 Jul 20:47:53 20:50:20 22° 186° (S) 20:52:47 2401.200-2431.200
CINEMA 3 25 Jul 20:52:17 20:55:48 22° 269° (W) 20:59:28 145.822/145.860
BEESAT 3 25 Jul 21:03:59 21:06:55 20° 324° (NW) 21:09:53 437.485
CANX-2 25 Jul 21:04:28 21:07:11 16° 270° (W) 21:09:53 2200.000
Oscar 11 25 Jul 21:04:53 21:09:15 89° 64° (ENE) 21:13:38 145.826/435.025
BEESAT 2 25 Jul 21:05:46 21:09:13 28° 319° (NW) 21:12:42 435.950
PRISM 25 Jul 21:07:29 21:11:22 40° 99° (E) 21:15:14 437.425
AAUSAT CUBESAT 2 25 Jul 21:08:54 21:12:42 34° 263° (W) 21:16:32 437.432
M-CUBED/EXP-1 PRIME 25 Jul 21:13:09 21:16:54 66° 68° (ENE) 21:21:00 437.505
AIST 2 25 Jul 21:13:36 21:17:04 27° 116° (ESE) 21:20:36 435.215
CUTE 1.7 + AOD 2 25 Jul 21:18:57 21:21:04 13° 271° (W) 21:23:11 437.475
HO-68 25 Jul 21:18:58 21:24:39 25° 269° (W) 21:30:24 435.675
Cosmos 2504 25 Jul 21:24:02 21:31:49 40° 68° (ENE) 21:39:02 435.465 / 435.565
AO-85 25 Jul 21:24:09 21:27:48 22° 33° (NNE) 21:31:13 145.980
STRAND 1 25 Jul 21:25:23 21:29:40 27° 297° (WNW) 21:33:56 437.568
O/OREOS (USA 219) 25 Jul 21:29:35 21:34:03 85° 297° (WNW) 21:38:34 437.305
AUBIESAT-1 25 Jul 21:40:46 21:44:34 76° 252° (WSW) 21:48:44 437.475
UNISAT 6 25 Jul 21:44:24 21:45:43 11° 86° (E) 21:47:02 437.425
DELFI C3 25 Jul 21:45:48 21:49:46 73° 258° (WSW) 21:53:46 145.870
HUMSAT D 25 Jul 21:49:38 21:53:53 61° 73° (ENE) 21:58:09 437.325/437.525
UWE-3 25 Jul 21:52:21 21:56:04 24° 268° (W) 21:59:51 435.000/436.395/437.385
Cosmos 2491 25 Jul 21:54:57 22:03:36 73° 94° (E) 22:12:16 435.465 / 435.565
FUNcube-1 25 Jul 21:56:23 22:00:27 32° 265° (W) 22:04:35 145.935
ZACube-1 25 Jul 21:56:25 22:00:26 31° 265° (W) 22:04:32 437.345
PCSat 25 Jul 21:59:47 22:04:08 24° 323° (NW) 22:08:32 145.827
ESTCUBE 1 25 Jul 22:00:17 22:03:19 18° 61° (ENE) 22:06:21 437.505/2401.250
CUBEBUG 2 25 Jul 22:13:22 22:15:01 12° 274° (W) 22:16:40 437.445
ANTELSAT 25 Jul 22:20:55 22:24:48 25° 93° (E) 22:28:35 437.575/2403.000
VELOX 1 25 Jul 22:24:11 22:27:12 18° 61° (ENE) 22:30:14 145.980
ISS 25 Jul 22:24:48 22:27:52 39° 145° (SE) 22:30:57 145.825
PHONESAT 2.4 25 Jul 22:25:12 22:26:12 11° 202° (SSW) 22:27:11 2401.200-2431.200
YUBILEINY 25 Jul 22:26:33 22:34:32 40° 275° (W) 22:42:29 435.215
CUBEBUG 1 25 Jul 22:29:29 22:32:48 22° 64° (ENE) 22:36:09 437.445
SPROUT 25 Jul 22:34:00 22:35:15 11° 57° (ENE) 22:36:31 437.525
PRISM 25 Jul 22:43:20 22:46:27 21° 296° (WNW) 22:49:33 437.425
Oscar 11 25 Jul 22:45:34 22:46:01 10° 274° (W) 22:46:28 145.826/435.025
M-CUBED/EXP-1 PRIME 25 Jul 22:50:25 22:52:00 12° 267° (W) 22:53:38 437.505
AIST 2 25 Jul 22:51:32 22:55:26 39° 315° (NW) 22:59:22 435.215
TIGRISAT 25 Jul 23:02:38 23:07:17 60° 101° (E) 23:11:48 435.000
AO-85 25 Jul 23:04:18 23:08:47 71° 236° (SW) 23:12:53 145.980
AISAT 25 Jul 23:07:21 23:11:33 47° 70° (ENE) 23:15:48 437.250
O/OREOS (USA 219) 25 Jul 23:11:48 23:14:12 14° 316° (NW) 23:16:35 437.305
DX 1 25 Jul 23:13:09 23:17:10 39° 68° (ENE) 23:21:13 434.975-435.025
NANOSAT C BR1 25 Jul 23:15:35 23:17:55 14° 89° (E) 23:20:15 145.865
Cosmos 2504 25 Jul 23:17:31 23:25:24 49° 272° (W) 23:32:41 435.465 / 435.565
UNISAT 6 25 Jul 23:18:26 23:23:09 89° 132° (SE) 23:27:44 437.425
DUCHIFAT 1 25 Jul 23:20:34 23:23:04 15° 90° (E) 23:25:33 145.980
HUMSAT D 25 Jul 23:27:24 23:29:55 15° 271° (W) 23:32:25 437.325/437.525
UKube-1 25 Jul 23:29:51 23:33:58 46° 70° (ENE) 23:38:06 .
TISAT 1 25 Jul 23:34:59 23:36:41 12° 58° (ENE) 23:38:23 437.305
ESTCUBE 1 25 Jul 23:35:16 23:39:42 59° 258° (WSW) 23:44:10 437.505/2401.250
50 SAT 25 Jul 23:35:23 23:39:04 87° 256° (WSW) 23:42:45 437.505
QB50P1 25 Jul 23:36:07 23:39:38 24° 94° (E) 23:43:07 145.935-145.965
POPSAT HIP 1 25 Jul 23:42:17 23:45:59 27° 95° (E) 23:49:39 437.405
BUGSAT 1 25 Jul 23:42:47 23:44:21 12° 88° (E) 23:45:55 437.445
AIST 1 25 Jul 23:53:41 23:57:24 27° 72° (ENE) 00:01:07
Cosmos 2491 25 Jul 23:53:56 00:01:17 30° 297° (WNW) 00:08:42 435.465 / 435.565
ANTELSAT 25 Jul 23:57:16 00:01:38 40° 292° (WNW) 00:05:55 437.575/2403.000
JAS-2 25 Jul 23:57:41 00:00:40 15° 89° (E) 00:03:45 435.910
VELOX 1 25 Jul 23:58:59 00:03:17 55° 259° (W) 00:07:38 145.980
ISS 26 Jul 00:01:05 00:04:16 51° 344° (NNW) 00:07:28 145.825
QB50P2 26 Jul 00:02:29 00:06:40 47° 99° (E) 00:10:47 145.880/145.840
CUBEBUG 1 26 Jul 00:04:45 00:08:51 42° 261° (W) 00:13:00 437.445
POLYITAN 1 26 Jul 00:05:08 00:09:19 47° 99° (E) 00:13:28 437.675
SPROUT 26 Jul 00:06:13 00:10:29 85° 77° (ENE) 00:14:49 437.525
SWISSCUBE 26 Jul 00:25:16 00:26:56 12° 54° (NE) 00:28:35 437.505
Cosmos 2499 26 Jul 00:32:22 00:32:46 10° 44° (NE) 00:33:10 435.465 / 435.565
AIST 2 26 Jul 00:33:49 00:35:03 11° 337° (NNW) 00:36:16 435.215
GONETS M04 26 Jul 00:37:38 00:43:20 18° 53° (NE) 00:49:01
TIGRISAT 26 Jul 00:40:16 00:43:31 19° 299° (WNW) 00:46:43 435.000
Oscar 19 26 Jul 00:43:53 00:44:30 10° 85° (E) 00:45:06 437.125/150
AISAT 26 Jul 00:45:06 00:48:17 20° 268° (W) 00:51:30 437.250
BEESAT 26 Jul 00:45:25 00:48:17 16° 58° (ENE) 00:51:09 436.000
NANOSAT C BR1 26 Jul 00:49:50 00:54:05 63° 287° (WNW) 00:58:18 145.865
DX 1 26 Jul 00:50:03 00:53:30 23° 266° (W) 00:56:59 434.975-435.025
DUCHIFAT 1 26 Jul 00:54:56 00:59:09 59° 287° (WNW) 01:03:20 145.980
UNISAT 6 26 Jul 00:56:54 00:59:09 13° 303° (WNW) 01:01:22 437.425
ITUPSAT 1 26 Jul 01:06:22 01:10:08 23° 62° (ENE) 01:13:54 437.325
UKube-1 26 Jul 01:07:08 01:10:15 19° 268° (W) 01:13:23 .
TISAT 1 26 Jul 01:07:30 01:11:42 84° 255° (WSW) 01:15:58 437.305
QB50P1 26 Jul 01:11:33 01:15:31 37° 291° (WNW) 01:19:27 145.935-145.965
BUGSAT 1 26 Jul 01:15:59 01:20:15 77° 286° (WNW) 01:24:29 437.445
POPSAT HIP 1 26 Jul 01:17:56 01:21:47 33° 293° (WNW) 01:25:37 437.405
AIST 1 26 Jul 01:31:11 01:35:00 31° 270° (W) 01:38:50
PCSat 26 Jul 01:34:35 01:35:49 11° 15° (NNE) 01:37:01 145.827
ISS 26 Jul 01:38:01 01:41:06 37° 4° (N) 01:44:11 145.825
QB50P2 26 Jul 01:38:59 01:42:10 20° 297° (WNW) 01:45:20 145.880/145.840
JAS-2 26 Jul 01:41:09 01:46:24 78° 286° (WNW) 01:51:58 435.910
POLYITAN 1 26 Jul 01:41:39 01:44:48 20° 297° (WNW) 01:47:57 437.675
SPROUT 26 Jul 01:46:15 01:47:03 10° 273° (W) 01:47:51 437.525
Gurwin Techsat 1B 26 Jul 01:48:54 01:52:47 20° 91° (E) 01:56:37 435.225
SWISSCUBE 26 Jul 01:59:07 02:03:54 74° 73° (ENE) 02:08:43 437.505
BEESAT 3 26 Jul 02:02:18 02:05:12 19° 35° (NE) 02:08:06 437.485
BEESAT 2 26 Jul 02:05:37 02:07:54 14° 30° (NNE) 02:10:11 435.950
ITAMSAT 1 26 Jul 02:14:25 02:15:30 11° 85° (E) 02:16:35 435.822/435.867
Oscar 19 26 Jul 02:19:31 02:24:42 75° 103° (ESE) 02:29:53 437.125/150
BEESAT 26 Jul 02:20:41 02:25:28 78° 256° (WSW) 02:30:18 436.000
Cosmos 2499 26 Jul 02:20:59 02:28:37 45° 70° (ENE) 02:35:41 435.465 / 435.565
GONETS M04 26 Jul 02:33:12 02:42:01 72° 78° (ENE) 02:50:50
ITUPSAT 1 26 Jul 02:43:01 02:47:41 50° 260° (W) 02:52:22 437.325
KKS-1 26 Jul 02:51:47 02:55:38 30° 66° (ENE) 02:59:31 437.445
BUGSAT 1 26 Jul 02:54:38 02:54:52 10° 304° (NW) 02:55:05 437.445
ISS 26 Jul 03:14:32 03:17:48 83° 24° (NNE) 03:21:03 145.825
MOZHAYETS 4 26 Jul 03:14:49 03:19:17 50° 71° (ENE) 03:23:47
PCSat 26 Jul 03:16:32 03:21:10 27° 40° (NE) 03:25:47 145.827
CUSAT 1 26 Jul 03:23:08 03:26:23 23° 97° (E) 03:29:07 437.405
Gurwin Techsat 1B 26 Jul 03:27:55 03:33:11 63° 289° (WNW) 03:38:25 435.225
JAS-2 26 Jul 03:28:27 03:30:45 13° 306° (NW) 03:33:05 435.910
DANDE 26 Jul 03:32:05 03:35:17 16° 92° (E) 03:38:04 436.750
STARS 26 Jul 03:34:09 03:38:15 40° 68° (ENE) 03:42:24 437.465
BEESAT 3 26 Jul 03:39:21 03:43:20 73° 236° (SW) 03:47:16 437.485
SWISSCUBE 26 Jul 03:39:36 03:42:14 15° 271° (W) 03:44:53 437.505
BEESAT 2 26 Jul 03:42:27 03:46:29 69° 52° (NE) 03:50:27 435.950
ITAMSAT 1 26 Jul 03:50:38 03:55:52 77° 104° (ESE) 04:01:02 435.822/435.867
AIST 2 26 Jul 03:54:02 03:56:00 13° 26° (NNE) 03:57:56 435.215
AO-7 26 Jul 03:58:34 04:06:26 42° 98° (E) 04:14:12 29.400- 29.500
Oscar 19 26 Jul 03:59:59 04:03:28 19° 302° (WNW) 04:06:56 437.125/150
Cosmos 2499 26 Jul 04:14:22 04:21:41 42° 274° (W) 04:28:31 435.465 / 435.565
KKS-1 26 Jul 04:28:10 04:32:08 32° 263° (W) 04:36:10 437.445
CUBESAT XI-V 26 Jul 04:30:33 04:34:50 39° 69° (ENE) 04:39:07 437.345
GONETS M04 26 Jul 04:30:57 04:38:04 29° 280° (W) 04:45:13
ISS 26 Jul 04:51:31 04:53:55 19° 222° (SW) 04:56:18 145.825
MOZHAYETS 4 26 Jul 04:53:19 04:56:45 20° 269° (W) 05:00:12
PCSat 26 Jul 04:59:38 05:05:02 66° 241° (WSW) 05:10:23 145.827
CUSAT 1 26 Jul 05:05:14 05:08:19 22° 286° (WNW) 05:10:56 437.405
Gurwin Techsat 1B 26 Jul 05:10:26 05:12:07 11° 308° (NW) 05:13:47 435.225
STARS 26 Jul 05:11:14 05:14:45 23° 266° (W) 05:18:19 437.465
DANDE 26 Jul 05:12:26 05:17:57 61° 282° (WNW) 05:22:04 436.750
BEESAT 2 26 Jul 05:21:39 05:23:48 14° 249° (WSW) 05:25:56 435.950
STRAND 1 26 Jul 05:28:27 05:31:20 15° 56° (NE) 05:34:13 437.568
ITAMSAT 1 26 Jul 05:31:17 05:34:45 18° 303° (WNW) 05:38:11 435.822/435.867
AIST 2 26 Jul 05:31:20 05:35:26 51° 48° (NE) 05:39:30 435.215
BRITE-PL 26 Jul 05:36:12 05:39:29 18° 91° (E) 05:42:56 437.365/2234.400
HORYU 2 26 Jul 05:39:30 05:43:56 57° 101° (E) 05:48:20 437.375
NOAA 15 26 Jul 05:44:51 05:48:17 17° 90° (E) 05:51:44 137.62
NOAA 18 26 Jul 05:45:29 05:48:11 14° 87° (E) 05:50:51 137.9125
AO-7 26 Jul 05:51:22 05:59:23 53° 299° (WNW) 06:07:21 29.400- 29.500
O/OREOS (USA 219) 26 Jul 05:57:17 06:01:33 40° 57° (ENE) 06:05:50 437.305
RS-15 26 Jul 06:01:22 06:10:52 32° 103° (ESE) 06:20:44 29.354- 29.394
CUBESAT XI-V 26 Jul 06:08:28 06:12:19 26° 266° (W) 06:16:11 437.345
Cosmos 2491 26 Jul 06:08:55 06:09:44 10° 42° (NE) 06:10:34 435.465 / 435.565
LilacSat-2 26 Jul 06:24:33 06:27:49 25° 94° (E) 06:31:02 437.200
Cubesat XI-IV 26 Jul 06:34:58 06:39:54 36° 96° (E) 06:44:46 437.490
GOMX 1 26 Jul 06:44:23 06:49:03 38° 97° (E) 06:53:56 467.674
DOVE 4 26 Jul 06:44:41 06:48:29 20° 91° (E) 06:52:20 437.250
HO-68 26 Jul 06:58:20 06:58:43 10° 81° (E) 06:59:06 435.675
CUTE-I 26 Jul 06:58:53 07:04:10 57° 101° (ESE) 07:09:23 437.470
STRAND 1 26 Jul 07:04:37 07:09:47 89° 81° (E) 07:14:59 437.568
CINEMA 3 26 Jul 07:08:32 07:09:07 10° 84° (E) 07:09:44 145.822/145.860
AIST 2 26 Jul 07:10:28 07:13:36 21° 246° (WSW) 07:16:45 435.215
BRITE-PL 26 Jul 07:13:39 07:18:17 61° 287° (WNW) 07:23:18 437.365/2234.400
HORYU 2 26 Jul 07:16:59 07:20:06 19° 299° (WNW) 07:23:10 437.375
NOAA 15 26 Jul 07:23:21 07:28:36 71° 289° (WNW) 07:33:50 137.62
NOAA 18 26 Jul 07:24:03 07:29:39 86° 105° (ESE) 07:35:12 137.9125
O/OREOS (USA 219) 26 Jul 07:37:02 07:40:47 26° 256° (WSW) 07:44:32 437.305
AO-7 26 Jul 07:45:45 07:50:19 16° 322° (NW) 07:54:54 29.400- 29.500
YUBILEINY 26 Jul 07:46:15 07:47:48 11° 67° (ENE) 07:49:20 435.215
SO-50 26 Jul 07:47:20 07:50:54 21° 112° (ESE) 07:54:28 436.795
LilacSat-2 26 Jul 07:58:45 08:02:07 29° 292° (WNW) 08:05:28 437.200
PRISM 26 Jul 07:59:44 08:03:36 44° 70° (ENE) 08:07:29 437.425
Cosmos 2491 26 Jul 08:01:23 08:09:37 43° 69° (ENE) 08:17:50 435.465 / 435.565
SEEDS 26 Jul 08:04:43 08:07:35 18° 91° (E) 08:10:25 437.485
RS-15 26 Jul 08:10:21 08:21:58 85° 308° (NW) 08:34:15 29.354- 29.394
Cubesat XI-IV 26 Jul 08:15:05 08:19:58 36° 295° (WNW) 08:24:48 437.490
COMPASS 1 26 Jul 08:18:51 08:21:40 18° 91° (E) 08:24:28 437.405
DOVE 4 26 Jul 08:21:30 08:26:30 61° 288° (WNW) 08:31:40 437.250
CUBEBUG 2 26 Jul 08:22:01 08:25:02 17° 89° (E) 08:27:59 437.445
GOMX 1 26 Jul 08:22:41 08:27:02 32° 293° (WNW) 08:31:37 467.674
TIGRISAT 26 Jul 08:31:03 08:32:34 11° 55° (NE) 08:34:06 435.000
CUTE-I 26 Jul 08:39:37 08:43:51 24° 300° (WNW) 08:48:03 437.470
HO-68 26 Jul 08:40:54 08:48:01 58° 102° (ESE) 08:55:04 435.675
CINEMA 3 26 Jul 08:42:02 08:47:06 75° 103° (ESE) 08:52:06 145.822/145.860
CANX-2 26 Jul 08:44:17 08:48:32 72° 102° (ESE) 08:52:43 2200.000
UNISAT 6 26 Jul 08:45:27 08:48:18 16° 59° (ENE) 08:51:11 437.425
STRAND 1 26 Jul 08:47:15 08:49:40 13° 273° (W) 08:52:05 437.568
AAUSAT CUBESAT 2 26 Jul 08:47:51 08:51:25 28° 95° (E) 08:54:57 437.432
Oscar 11 26 Jul 08:50:34 08:52:41 13° 88° (E) 08:54:46 145.826/435.025
CUTE 1.7 + AOD 2 26 Jul 08:57:58 09:02:13 87° 105° (ESE) 09:06:25 437.475
NOAA 15 26 Jul 09:05:15 09:07:30 13° 307° (NW) 09:09:43 137.62
NOAA 18 26 Jul 09:06:00 09:09:37 18° 305° (NW) 09:13:12 137.9125
DELFI C3 26 Jul 09:22:16 09:23:36 11° 88° (E) 09:24:54 145.870
ANTELSAT 26 Jul 09:22:22 09:26:30 33° 67° (ENE) 09:30:42 437.575/2403.000
SO-50 26 Jul 09:26:07 09:30:58 66° 310° (NW) 09:35:48 436.795
YUBILEINY 26 Jul 09:33:57 09:42:23 54° 90° (E) 09:50:54 435.215
PRISM 26 Jul 09:36:18 09:39:09 18° 268° (W) 09:41:59 437.425
UWE-3 26 Jul 09:37:44 09:42:21 59° 100° (E) 09:46:50 435.000/436.395/437.385
SEEDS 26 Jul 09:39:32 09:43:33 47° 289° (WNW) 09:47:32 437.485
FUNcube-1 26 Jul 09:40:52 09:45:09 40° 97° (E) 09:49:17 145.935
ZACube-1 26 Jul 09:41:06 09:45:26 42° 97° (E) 09:49:40 437.345
COMPASS 1 26 Jul 09:53:31 09:57:29 47° 289° (WNW) 10:01:27 437.405
CUBEBUG 2 26 Jul 09:57:23 10:02:07 64° 287° (WNW) 10:06:43 437.445
Cosmos 2491 26 Jul 09:58:19 10:06:36 50° 272° (W) 10:14:54 435.465 / 435.565
DOVE 4 26 Jul 10:02:20 10:03:15 10° 306° (NW) 10:04:10 437.250
TIGRISAT 26 Jul 10:03:48 10:08:25 75° 74° (ENE) 10:13:08 435.000
Cosmos 2504 26 Jul 10:05:46 10:13:16 32° 82° (E) 10:20:43 435.465 / 435.565
NANOSAT C BR1 26 Jul 10:10:46 10:13:32 17° 61° (ENE) 10:16:19 145.865
DUCHIFAT 1 26 Jul 10:15:30 10:18:21 18° 62° (ENE) 10:21:13 145.980
JAS-2 26 Jul 10:16:24 10:18:04 11° 53° (NE) 10:19:43 435.910
UNISAT 6 26 Jul 10:19:49 10:24:26 74° 257° (WSW) 10:29:10 437.425
CINEMA 3 26 Jul 10:20:21 10:23:38 18° 301° (WNW) 10:26:56 145.822/145.860
CANX-2 26 Jul 10:21:41 10:23:51 14° 300° (WNW) 10:26:00 2200.000
AAUSAT CUBESAT 2 26 Jul 10:23:18 10:26:53 29° 293° (WNW) 10:30:27 437.432
M-CUBED/EXP-1 PRIME 26 Jul 10:23:19 10:27:35 34° 102° (ESE) 10:31:52 437.505
Oscar 11 26 Jul 10:24:58 10:29:17 68° 287° (WNW) 10:33:33 145.826/435.025
RS-15 26 Jul 10:25:24 10:36:22 41° 337° (NNW) 10:47:49 29.354- 29.394
HO-68 26 Jul 10:29:05 10:35:25 35° 302° (WNW) 10:41:44 435.675
QB50P1 26 Jul 10:31:30 10:35:06 27° 66° (ENE) 10:38:44 145.935-145.965
BUGSAT 1 26 Jul 10:35:42 10:37:42 13° 59° (ENE) 10:39:43 437.445
CUTE 1.7 + AOD 2 26 Jul 10:35:54 10:37:24 12° 302° (WNW) 10:38:54 437.475
POPSAT HIP 1 26 Jul 10:37:39 10:41:24 31° 67° (ENE) 10:45:11 437.405
AUBIESAT-1 26 Jul 10:50:17 10:54:48 50° 105° (ESE) 10:59:19 437.475
DELFI C3 26 Jul 10:54:58 10:58:54 67° 286° (WNW) 11:02:48 145.870
QB50P2 26 Jul 10:57:50 11:01:58 52° 72° (ENE) 11:06:09 145.880/145.840
ANTELSAT 26 Jul 10:59:02 11:03:11 32° 265° (W) 11:07:25 437.575/2403.000
POLYITAN 1 26 Jul 11:00:27 11:04:36 53° 72° (ENE) 11:08:49 437.675
HUMSAT D 26 Jul 11:05:27 11:09:41 74° 102° (ESE) 11:13:50 437.325/437.525
SO-50 26 Jul 11:09:03 11:12:21 18° 332° (NNW) 11:15:38 436.795
UWE-3 26 Jul 11:15:08 11:18:22 19° 299° (WNW) 11:21:32 435.000/436.395/437.385
FUNcube-1 26 Jul 11:17:29 11:21:11 25° 296° (WNW) 11:24:47 145.935
ZACube-1 26 Jul 11:17:52 11:21:29 24° 296° (WNW) 11:25:02 437.345
ESTCUBE 1 26 Jul 11:25:00 11:28:33 23° 93° (E) 11:32:06 437.505/2401.250
YUBILEINY 26 Jul 11:31:23 11:39:29 40° 292° (WNW) 11:47:42 435.215
TIGRISAT 26 Jul 11:43:16 11:45:40 14° 272° (W) 11:48:05 435.000
NANOSAT C BR1 26 Jul 11:44:41 11:48:50 57° 259° (W) 11:53:04 145.865
VELOX 1 26 Jul 11:46:18 11:49:45 22° 93° (E) 11:53:12 145.980
DUCHIFAT 1 26 Jul 11:49:31 11:53:40 54° 260° (W) 11:57:51 145.980
CUBEBUG 1 26 Jul 11:50:06 11:53:52 27° 95° (E) 11:57:37 437.445
SPROUT 26 Jul 11:50:57 11:52:37 12° 88° (E) 11:54:17 437.525
JAS-2 26 Jul 11:56:23 12:02:18 64° 71° (ENE) 12:07:40 435.910
Cosmos 2504 26 Jul 11:57:14 12:06:04 68° 283° (WNW) 12:14:52 435.465 / 435.565
M-CUBED/EXP-1 PRIME 26 Jul 11:57:50 12:02:02 34° 299° (WNW) 12:06:17 437.505
Oscar 19 26 Jul 12:01:51 12:05:48 23° 60° (ENE) 12:09:45 437.125/150
QB50P1 26 Jul 12:06:58 12:10:47 32° 264° (W) 12:14:39 145.935-145.965
BUGSAT 1 26 Jul 12:08:26 12:12:30 73° 256° (WSW) 12:16:41 437.445
POPSAT HIP 1 26 Jul 12:13:29 12:17:10 28° 265° (W) 12:20:54 437.405
AUBIESAT-1 26 Jul 12:25:16 12:28:57 24° 302° (WNW) 12:32:40 437.475
AIST 1 26 Jul 12:28:10 12:30:12 13° 83° (E) 12:32:15
AISAT 26 Jul 12:30:22 12:34:48 62° 102° (ESE) 12:39:13 437.250
DX 1 26 Jul 12:33:50 12:38:05 47° 100° (E) 12:42:17 434.975-435.025
50 SAT 26 Jul 12:34:27 12:38:04 74° 102° (ESE) 12:41:39 437.505
QB50P2 26 Jul 12:35:18 12:38:06 17° 269° (W) 12:40:55 145.880/145.840
POLYITAN 1 26 Jul 12:37:59 12:40:45 17° 270° (W) 12:43:32 437.675
RS-15 26 Jul 12:42:06 12:53:02 36° 12° (NNE) 13:04:07 29.354- 29.394
HUMSAT D 26 Jul 12:42:40 12:44:43 13° 301° (WNW) 12:46:46 437.325/437.525
UKube-1 26 Jul 12:49:27 12:53:43 54° 101° (E) 12:57:57 .
TISAT 1 26 Jul 12:50:05 12:51:50 12° 88° (E) 12:53:36 437.305
ESTCUBE 1 26 Jul 13:01:19 13:05:33 42° 291° (WNW) 13:09:46 437.505/2401.250
AO-7 26 Jul 13:11:34 13:17:28 22° 44° (NE) 13:23:22 29.400- 29.500
Gurwin Techsat 1B 26 Jul 13:12:43 13:17:42 43° 67° (ENE) 13:22:42 435.225
AO-85 26 Jul 13:21:35 13:25:32 21° 112° (ESE) 13:29:23 145.980
VELOX 1 26 Jul 13:22:12 13:26:25 43° 290° (WNW) 13:30:37 145.980
SPROUT 26 Jul 13:24:46 13:29:07 77° 286° (WNW) 13:33:25 437.525
CUBEBUG 1 26 Jul 13:26:13 13:30:11 34° 293° (WNW) 13:34:10 437.445
ITAMSAT 1 26 Jul 13:33:41 13:37:54 25° 61° (ENE) 13:42:07 435.822/435.867
Oscar 19 26 Jul 13:39:44 13:44:45 57° 259° (W) 13:49:49 437.125/150
JAS-2 26 Jul 13:43:25 13:47:47 21° 268° (W) 13:51:53 435.910
GONETS M04 26 Jul 13:46:29 13:51:11 16° 72° (ENE) 13:55:54
CUSAT 1 26 Jul 13:51:51 13:53:31 14° 72° (ENE) 13:55:21 437.405
Cosmos 2504 26 Jul 13:55:43 14:01:19 18° 307° (NW) 14:06:54 435.465 / 435.565
SWISSCUBE 26 Jul 13:57:31 14:00:12 15° 89° (E) 14:02:52 437.505
AIST 1 26 Jul 14:03:03 14:07:15 62° 281° (W) 14:11:30
AISAT 26 Jul 14:07:55 14:10:49 17° 300° (WNW) 14:13:44 437.250
50 SAT 26 Jul 14:10:32 14:11:10 10° 300° (WNW) 14:11:47 437.505
DX 1 26 Jul 14:10:41 14:13:59 21° 298° (WNW) 14:17:16 434.975-435.025
BEESAT 26 Jul 14:18:18 14:21:55 21° 92° (E) 14:25:31 436.000
TISAT 1 26 Jul 14:23:44 14:28:00 73° 285° (WNW) 14:32:14 437.305
UKube-1 26 Jul 14:26:24 14:29:23 19° 299° (WNW) 14:32:22 .
SO-50 26 Jul 14:34:53 14:37:24 14° 22° (NNE) 14:39:54 436.795
ITUPSAT 1 26 Jul 14:40:19 14:44:38 33° 96° (E) 14:48:54 437.325
Gurwin Techsat 1B 26 Jul 14:53:09 14:57:47 30° 266° (W) 15:02:26 435.225
RS-15 26 Jul 14:56:13 15:08:29 64° 43° (NE) 15:20:42 29.354- 29.394
AO-85 26 Jul 15:00:17 15:05:38 72° 309° (NW) 15:10:42 145.980
Cosmos 2499 26 Jul 15:00:28 15:08:13 36° 84° (E) 15:15:47 435.465 / 435.565
AO-7 26 Jul 15:00:37 15:08:56 74° 66° (ENE) 15:17:18 29.400- 29.500
SPROUT 26 Jul 15:03:44 15:04:17 10° 304° (NW) 15:04:50 437.525
HORYU 2 26 Jul 15:07:31 15:08:54 11° 55° (NE) 15:10:17 437.375
ITAMSAT 1 26 Jul 15:11:58 15:17:04 53° 260° (W) 15:22:11 435.822/435.867
CUSAT 1 26 Jul 15:33:07 15:35:29 23° 263° (W) 15:38:14 437.405
